Swansboro, NC

5:11 PM EST on January 23, 2018 (GMT -0500)
Bogue McAlf

Weather History for KNJM - February, 2013

Change the Weather History Date:

Thursday, February 14, 2013

  Actual Average (KNKT) Record (KNKT)
Temperature  
Mean Temperature 45 °F -  
Max Temperature 51 °F 55 °F 69 °F (2005)
Min Temperature 39 °F 35 °F 18 °F (2015)
Degree Days  
Heating Degree Days 20    
Moisture  
Dew Point 37 °F    
Average Humidity 72    
Maximum Humidity 93    
Minimum Humidity 54    
Precipitation  
Precipitation 0.00 in - - ()
Sea Level Pressure  
Sea Level Pressure 30.02 in    
Wind  
Wind Speed 5 mph (NNE)    
Max Wind Speed 10 mph    
Max Gust Speed -    
Visibility 10 miles    
Events      
Averages and records for this station are not official NWS values.
T = Trace of Precipitation, MM = Missing Value Source: NWS Daily Summary

Daily Weather History Graph

Daily Weather History Graph

Search for Another Location

Airport or City:

Trip Planner

Search our weather history database for the weather conditions in past years. The results will help you decide how hot, cold, wet, or windy it might be!

Date:

Astronomy

Feb. 14, 2013 Rise Set
Actual Time 6:54 AM EST 5:50 PM EST
Civil Twilight 6:28 AM EST 6:16 PM EST
Nautical Twilight 5:59 AM EST 6:45 PM EST
Astronomical Twilight 5:29 AM EST 7:15 PM EST
Moon 9:09 AM EST (2/14) 10:36 PM EST (2/14)
Length of Visible Light 11h 47m
Length of Day
10h 56m
Waxing Crescent, 21% of the Moon is Illuminated
Feb 14
Waxing Crescent
Feb 17
First Quarter
Feb 25
Full
Mar 4
Last Quarter
Mar 11
New

Hourly Weather History & Observations

Time (EST) Temp. Windchill Dew Point Humidity Pressure Visibility Wind Dir Wind Speed Gust Speed Precip Events Conditions
12:57 AM 51.1 °F - 45.0 °F 80% 29.83 in 10.0 mi WNW 6.9 mph - N/A   Partly Cloudy
1:57 AM 50.0 °F - 44.1 °F 80% 29.84 in 10.0 mi NW 10.4 mph - N/A   Partly Cloudy
2:57 AM 48.0 °F - 41.0 °F 77% 29.87 in 10.0 mi Variable 4.6 mph - N/A   Partly Cloudy
3:57 AM 46.0 °F 44.8 °F 37.0 °F 71% 29.91 in 10.0 mi NNW 3.5 mph - N/A   Clear
4:57 AM 41.0 °F - 36.0 °F 82% 29.95 in 10.0 mi Calm Calm - N/A   Clear
5:57 AM 39.0 °F - 35.1 °F 86% 29.97 in 10.0 mi Calm Calm - N/A   Clear
6:57 AM 39.9 °F 37.8 °F 35.1 °F 83% 29.99 in 10.0 mi NNW 3.5 mph - N/A   Clear
7:57 AM 42.1 °F 40.2 °F 37.0 °F 82% 30.01 in 10.0 mi NNW 3.5 mph - N/A   Clear
8:57 AM 44.1 °F 40.8 °F 36.0 °F 73% 30.04 in 10.0 mi North 5.8 mph - N/A   Mostly Cloudy
9:57 AM 46.9 °F - 34.0 °F 61% 30.04 in 10.0 mi North 9.2 mph - N/A   Mostly Cloudy
10:57 AM 50.0 °F - 35.1 °F 57% 30.06 in 10.0 mi ENE 9.2 mph - N/A   Mostly Cloudy
11:57 AM 50.0 °F - 34.0 °F 54% 30.06 in 10.0 mi ENE 5.8 mph - N/A   Mostly Cloudy
12:57 PM 50.0 °F - 35.1 °F 57% 30.04 in 10.0 mi NNE 5.8 mph - N/A   Overcast
1:57 PM 51.1 °F - 35.1 °F 54% 30.05 in 10.0 mi Variable 5.8 mph - N/A   Overcast
2:57 PM 51.1 °F - 35.1 °F 54% 30.03 in 10.0 mi East 3.5 mph - N/A   Overcast
3:57 PM 50.0 °F - 36.0 °F 59% 30.04 in 10.0 mi SSE 6.9 mph - N/A   Overcast
4:57 PM 48.9 °F - 37.0 °F 64% 30.05 in 10.0 mi SE 5.8 mph - N/A   Clear
5:57 PM 46.9 °F - 37.0 °F 68% 30.06 in 10.0 mi Calm Calm - N/A   Clear
6:57 PM 46.9 °F - 37.9 °F 71% 30.08 in 10.0 mi SSE 5.8 mph - N/A   Clear
7:57 PM 45.0 °F - 37.9 °F 76% 30.08 in 10.0 mi Calm Calm - N/A   Clear
8:57 PM 46.9 °F - 39.9 °F 77% 30.10 in 10.0 mi SSE 4.6 mph - N/A   Clear
9:57 PM 43.0 °F - 37.9 °F 82% 30.11 in 10.0 mi Calm Calm - N/A   Clear
10:57 PM 41.0 °F - 37.9 °F 89% 30.08 in 10.0 mi Calm Calm - N/A   Clear
11:57 PM 39.0 °F - 37.0 °F 93% 30.07 in 10.0 mi Calm Calm - N/A   Clear